Thedford, NE

7:59 AM CDT on September 24, 2017 (GMT -0500)
Thedford

Weather History for KTIF - February, 2014

Change the Weather History Date:

Saturday, February 22, 2014

  Actual Average (KANW) Record (KANW)
Temperature  
Mean Temperature 28 °F -  
Max Temperature 34 °F 37 °F 66 °F (2002)
Min Temperature 23 °F 18 °F 0 °F (2015)
Degree Days  
Heating Degree Days 36    
Moisture  
Dew Point 22 °F    
Average Humidity 73    
Maximum Humidity 86    
Minimum Humidity 56    
Precipitation  
Precipitation 0.00 in - - ()
Sea Level Pressure  
Sea Level Pressure 29.98 in    
Wind  
Wind Speed 5 mph (NNE)    
Max Wind Speed 12 mph    
Max Gust Speed -    
Visibility 9 miles    
Events Snow    
Averages and records for this station are not official NWS values.
T = Trace of Precipitation, MM = Missing Value Source: NWS Daily Summary

Daily Weather History Graph

Daily Weather History Graph

Search for Another Location

Airport or City:

Trip Planner

Search our weather history database for the weather conditions in past years. The results will help you decide how hot, cold, wet, or windy it might be!

Date:

Astronomy

Feb. 22, 2014 Rise Set
Actual Time 7:28 AM CST 6:24 PM CST
Civil Twilight 6:59 AM CST 6:52 PM CST
Nautical Twilight 6:27 AM CST 7:24 PM CST
Astronomical Twilight 5:55 AM CST 7:57 PM CST
Moon 1:27 AM CST (2/22) 11:33 AM CST (2/22)
Length of Visible Light 11h 52m
Length of Day
10h 56m
Waning Gibbous, 50% of the Moon is Illuminated
Feb 22
Waning Gibbous
Mar 1
New
Mar 8
First Quarter
Mar 16
Full
Mar 23
Last Quarter

Hourly Weather History & Observations

Time (CST) Temp. Windchill Dew Point Humidity Pressure Visibility Wind Dir Wind Speed Gust Speed Precip Events Conditions
12:15 AM 33.3 °F 27.1 °F 23.4 °F 67% 29.86 in 10.0 mi WNW 6.9 mph - N/A   Overcast
12:35 AM 33.1 °F 26.9 °F 23.7 °F 68% 29.86 in 10.0 mi West 6.9 mph - N/A   Overcast
12:55 AM 32.2 °F 27.7 °F 23.2 °F 69% 29.86 in 10.0 mi WNW 4.6 mph - N/A   Mostly Cloudy
1:15 AM 31.8 °F 25.4 °F 23.5 °F 71% 29.87 in 10.0 mi West 6.9 mph - N/A   Mostly Cloudy
1:35 AM 32.2 °F 28.9 °F 23.5 °F 70% 29.86 in 10.0 mi WNW 3.5 mph - N/A   Overcast
1:55 AM 30.7 °F - 23.4 °F 74% 29.87 in 10.0 mi Calm Calm - N/A   Overcast
2:15 AM 32.0 °F 27.5 °F 23.9 °F 72% 29.87 in 10.0 mi NW 4.6 mph - N/A   Overcast
2:35 AM 31.6 °F 28.3 °F 23.9 °F 73% 29.88 in 10.0 mi NW 3.5 mph - N/A   Overcast
2:55 AM 31.1 °F - 23.7 °F 74% 29.87 in 10.0 mi Calm Calm - N/A   Overcast
3:15 AM 30.2 °F - 23.5 °F 76% 29.87 in 10.0 mi Calm Calm - N/A   Scattered Clouds
3:35 AM 29.8 °F - 23.7 °F 78% 29.86 in 10.0 mi Calm Calm - N/A   Clear
3:55 AM 27.5 °F - 22.5 °F 81% 29.87 in 10.0 mi Calm Calm - N/A   Clear
4:15 AM 27.3 °F 22.0 °F 23.0 °F 84% 29.89 in 10.0 mi West 4.6 mph - N/A   Mostly Cloudy
4:35 AM 28.4 °F - 23.9 °F 83% 29.90 in 10.0 mi Calm Calm - N/A   Overcast
4:55 AM 28.4 °F - 23.9 °F 83% 29.90 in 10.0 mi Calm Calm - N/A   Mostly Cloudy
5:15 AM 28.2 °F 23.1 °F 23.4 °F 82% 29.90 in 10.0 mi NNW 4.6 mph - N/A   Scattered Clouds
5:35 AM 26.1 °F 20.5 °F 22.1 °F 85% 29.91 in 10.0 mi NNW 4.6 mph - N/A   Scattered Clouds
5:55 AM 26.6 °F 21.2 °F 22.5 °F 84% 29.92 in 10.0 mi NW 4.6 mph - N/A   Mostly Cloudy
6:15 AM 27.5 °F 21.1 °F 23.0 °F 83% 29.92 in 10.0 mi NNW 5.8 mph - N/A   Overcast
6:35 AM 28.4 °F 24.6 °F 23.5 °F 82% 29.92 in 10.0 mi NNW 3.5 mph - N/A   Overcast
6:55 AM 27.9 °F 24.0 °F 23.0 °F 82% 29.92 in 10.0 mi North 3.5 mph - N/A   Overcast
7:15 AM 27.5 °F 23.6 °F 22.6 °F 82% 29.94 in 10.0 mi NNW 3.5 mph - N/A   Mostly Cloudy
7:35 AM 27.3 °F 23.4 °F 23.4 °F 85% 29.95 in 10.0 mi NW 3.5 mph - N/A   Overcast
7:55 AM 27.0 °F - 23.0 °F 85% 29.94 in 10.0 mi Calm Calm - N/A   Mostly Cloudy
8:15 AM 27.7 °F 23.8 °F 24.1 °F 86% 29.95 in 10.0 mi North 3.5 mph - N/A   Scattered Clouds
8:35 AM 28.9 °F 21.9 °F 24.6 °F 84% 29.95 in 10.0 mi North 6.9 mph - N/A   Mostly Cloudy
8:55 AM 29.3 °F 21.5 °F 24.4 °F 82% 29.96 in 10.0 mi North 8.1 mph - N/A   Overcast
9:15 AM 30.0 °F 24.1 °F 23.7 °F 77% 29.96 in 10.0 mi North 5.8 mph - N/A   Overcast
9:35 AM 30.2 °F 25.4 °F 23.7 °F 77% 29.98 in 10.0 mi NNE 4.6 mph - N/A   Overcast
9:55 AM 30.4 °F 24.5 °F 23.7 °F 76% 29.98 in 10.0 mi NE 5.8 mph - N/A   Overcast
10:15 AM 30.7 °F 24.9 °F 23.5 °F 75% 29.98 in 10.0 mi NNE 5.8 mph - N/A   Overcast
10:35 AM 31.6 °F 28.3 °F 22.8 °F 70% 29.98 in 10.0 mi NE 3.5 mph - N/A   Overcast
10:55 AM 32.0 °F 26.4 °F 22.6 °F 68% 29.98 in 10.0 mi NNE 5.8 mph - N/A   Mostly Cloudy
11:15 AM 32.5 °F 27.1 °F 21.4 °F 64% 29.98 in 10.0 mi NNE 5.8 mph - N/A   Scattered Clouds
11:35 AM 32.5 °F 27.1 °F 21.0 °F 63% 29.98 in 10.0 mi NE 5.8 mph - N/A   Scattered Clouds
11:55 AM 34.0 °F 28.8 °F 21.2 °F 60% 29.99 in 10.0 mi NE 5.8 mph - N/A   Mostly Cloudy
12:15 PM 34.0 °F 31.0 °F 20.3 °F 57% 29.98 in 10.0 mi NE 3.5 mph - N/A   Overcast
12:35 PM 33.8 °F 28.6 °F 20.5 °F 58% 29.97 in 10.0 mi ENE 5.8 mph - N/A   Overcast
12:55 PM 34.3 °F 29.2 °F 20.1 °F 56% 29.97 in 10.0 mi NNE 5.8 mph - N/A   Overcast
1:15 PM 34.2 °F 25.7 °F 19.9 °F 56% 29.96 in 10.0 mi ENE 11.5 mph - N/A   Overcast
1:35 PM 34.0 °F 26.6 °F 20.3 °F 57% 29.96 in 10.0 mi ENE 9.2 mph - N/A   Overcast
1:55 PM 33.8 °F 25.8 °F 20.3 °F 58% 29.96 in 10.0 mi ENE 10.4 mph - N/A   Overcast
2:15 PM 34.0 °F 28.0 °F 20.1 °F 57% 29.96 in 10.0 mi NE 6.9 mph - N/A   Overcast
2:35 PM 33.1 °F 27.7 °F 19.8 °F 58% 29.96 in 10.0 mi NE 5.8 mph - N/A   Overcast
2:55 PM 33.3 °F 26.4 °F 19.4 °F 57% 29.97 in 10.0 mi NNE 8.1 mph - N/A   Overcast
3:15 PM 32.9 °F 25.9 °F 19.8 °F 59% 29.97 in 10.0 mi NE 8.1 mph - N/A   Overcast
3:35 PM 32.4 °F 26.0 °F 19.4 °F 59% 29.97 in 10.0 mi ENE 6.9 mph - N/A   Overcast
3:55 PM 32.4 °F 26.0 °F 19.4 °F 59% 29.98 in 10.0 mi ENE 6.9 mph - N/A   Overcast
4:15 PM 32.2 °F 23.8 °F 19.4 °F 59% 29.98 in 10.0 mi NE 10.4 mph - N/A   Overcast
4:35 PM 32.0 °F 23.0 °F 19.2 °F 59% 29.98 in 10.0 mi NE 11.5 mph - N/A   Overcast
4:55 PM 31.8 °F 22.8 °F 18.9 °F 59% 29.98 in 10.0 mi NE 11.5 mph - N/A   Overcast
5:15 PM 31.1 °F 22.4 °F 18.7 °F 60% 29.99 in 10.0 mi NE 10.4 mph - N/A   Overcast
5:35 PM 30.2 °F 22.6 °F 19.4 °F 64% 30.00 in 7.0 mi NE 8.1 mph - N/A Snow Light Snow
5:55 PM 29.7 °F 20.7 °F 19.8 °F 67% 30.01 in 7.0 mi NE 10.4 mph - N/A Snow Light Snow
6:15 PM 28.0 °F 20.0 °F 21.9 °F 78% 30.02 in 1.0 mi NE 8.1 mph - N/A Snow Light Snow
6:35 PM 27.5 °F 21.1 °F 22.8 °F 83% 30.03 in 2.0 mi ENE 5.8 mph - N/A Snow Light Snow
6:55 PM 27.3 °F - 22.6 °F 83% 30.04 in 2.5 mi Calm Calm - N/A Snow Light Snow
7:15 PM 27.3 °F 17.7 °F 22.1 °F 81% 30.05 in 2.5 mi NE 10.4 mph - N/A Snow Light Snow
7:35 PM 27.0 °F 18.7 °F 22.1 °F 82% 30.06 in 4.0 mi NE 8.1 mph - N/A Snow Light Snow
7:55 PM 27.0 °F 21.6 °F 21.6 °F 80% 30.07 in 7.0 mi NE 4.6 mph - N/A Snow Light Snow
8:15 PM 27.0 °F 19.5 °F 20.8 °F 78% 30.07 in 10.0 mi NE 6.9 mph - N/A   Overcast
8:35 PM 27.3 °F 19.9 °F 18.5 °F 69% 30.08 in 10.0 mi NE 6.9 mph - N/A   Overcast
8:55 PM 27.3 °F 20.9 °F 17.6 °F 67% 30.09 in 10.0 mi NE 5.8 mph - N/A   Overcast
9:15 PM 27.5 °F 18.6 °F 16.9 °F 64% 30.10 in 10.0 mi NE 9.2 mph - N/A   Overcast
9:35 PM 25.7 °F 15.1 °F 19.0 °F 76% 30.12 in 10.0 mi NNE 11.5 mph - N/A   Overcast
9:55 PM 25.2 °F 16.5 °F 20.1 °F 81% 30.12 in 10.0 mi NNE 8.1 mph - N/A   Overcast
10:15 PM 24.8 °F 16.9 °F 20.3 °F 83% 30.13 in 4.0 mi NNE 6.9 mph - N/A Snow Light Snow
10:35 PM 24.4 °F 18.6 °F 20.5 °F 85% 30.13 in 4.0 mi NNE 4.6 mph - N/A Snow Light Snow
10:55 PM 23.9 °F 16.8 °F 20.3 °F 86% 30.14 in 4.0 mi NE 5.8 mph - N/A Snow Light Snow
11:15 PM 23.7 °F 19.3 °F 19.8 °F 85% 30.14 in 10.0 mi NE 3.5 mph - N/A   Overcast
11:35 PM 24.1 °F 19.7 °F 19.9 °F 84% 30.16 in 10.0 mi NNE 3.5 mph - N/A Snow Light Snow
11:55 PM 23.9 °F 16.8 °F 17.6 °F 77% 30.16 in 10.0 mi NNE 5.8 mph - N/A   Overcast